Location: Archemont
(49.1579°N, 1.7598°E)
Time: 22:34:43
(UTC+00:00)

Altair - Pass Details

Date: 24 April 2024
Orbit: 1501 x 1682 km, 47.2° (Epoch: 19 May)

Event Time Altitude Azimuth Distance (km) Brightness Sun altitude
Rises 17:47:23 0° 229° (SW) 4,925 10.8 10.5°
Reaches altitude 10° 17:50:39 10° 225° (SW) 3,933 10.3 10.0°
Maximum altitude 18:00:23 56° 151° (SSE) 1,919 8.0 8.4°
Drops below altitude 10° 18:09:52 10° 78° (ENE) 3,841 9.1 6.9°
Sets 18:13:00 0° 74° (ENE) 4,804 9.6 6.4°
